Location: Ferchesar
(52.6477°N, 12.4298°E)
Time: 03:00:20
(UTC+01:00)

Vanguard 1 - Pass Details

Date: 10 December 2021
Orbit: 652 x 3830 km, 34.2° (Epoch: 21 January)

Event Time Altitude Azimuth Distance (km) Brightness Sun altitude
Rises 20:54:50 0° 202° (SSW) 6,170 14.2 -43.7°
Reaches altitude 10° 20:59:24 10° 191° (S) 5,597 13.8 -44.3°
Enters shadow 21:02:34 16° 181° (S) 5,317 13.5 -44.8°
Maximum altitude 21:13:23 28° 141° (SE) 5,191 - -46.2°
Drops below altitude 10° 21:30:30 10° 94° (E) 6,933 - -48.5°
Sets 21:37:01 0° 85° (E) 7,856 - -49.4°
